Location: 10033 Water Well
(34.0865°N, 106.8959°W)
Time: 15:52:58
(UTC+00:00)

Resurs 01 Rocket - Pass Details

Date: 13 January 2026
Orbit: 627 x 635 km, 97.7° (Epoch: 11 February)

Event Time Altitude Azimuth Distance (km) Brightness Sun altitude
Rises 01:14:38 0° 130° (SE) 2,903 4.7 -11.6°
Enters shadow 01:17:02 - 114° (ESE) 2,106 3.9 -12.0°
Exits shadow 01:22:45 12° 32° (NNE) 1,885 3.6 -13.2°
Drops below altitude 10° 01:23:13 10° 27° (NNE) 2,007 3.8 -13.3°
Sets 01:26:00 0° 8° (N) 2,919 4.8 -13.8°
